CZ-6A DEB

Satellite information

Favourite Embed

Satellite Type and Status

DEBRISIN ORBIT

Key statistics

Satellite CZ-6A DEB at a glance.

Uptime

968

Days in orbit

Revolutions

≈ 14.7

Per day

Orbit

SSO

Sun Synchronous Orbit

Inclination

98.7

Latest

Satellite identification and parameters

Extended collection of information and parameters for CZ-6A DEB.

Object identification

Identified? True

Debris? True

Object name: CZ-6A DEB

International designator: 2022-151MR

Object number (NORAD): 54591

Object ID (CCSDS): 54591

Country: PEOPLES REPUBLIC OF CHINA (PRC)

Current information (Y/N): Y

RCS size: SMALL

Orbital parameters

Period: 97.877 minutes

Inclination: 98.736 deg

SMA: 7035.248 km

Apoapsis: 735.532 km

Periapsis: 578.695 km

RAAN: 250.106 deg

Eccentricy: 0.0111465

Argument of periapsis: 268.541 deg

Mean anomaly: 90.3024 deg

Mean motion: 14.71240283 rev/day

Mean motion (dot): 0.00008345 rev/day2

B* drag term: 0.0012361 1/REarth

Two-line elements (TLE)

Creation date: July 5, 2025, 5:45 p.m.

Reference frame: TEME

Reference center: EARTH

Epoch: July 5, 2025, 2:36 p.m. UTC

TLE line 0: 0 CZ-6A DEB

TLE line 1: 1 54591U 22151MR 25186.60840726 .00008345 00000-0 12361-2 0 9995

TLE line 2: 2 54591 98.7360 250.1060 0111465 268.5410 90.3024 14.71240283 65323

Live tracking on map

Real-time ground track for satellite CZ-6A DEB.

In-orbit conjunctions

A list of the most updated potential collisions computed for object CZ-6A DEB.

Target Orbit TCA Probability of collision Miss distance Type
SL-3 R/B LEO 2024-09-10 09:43:00 0.001081335 156.0 (m) ROCKET BODY
COSMOS 2251 DEB LEO 2024-07-26 17:44:50 0.0001118794 36.0 (m) DEBRIS
FENGYUN 1C DEB SSO 2024-07-11 19:31:37 0.0001204128 135.0 (m) DEBRIS

Associated space launch

Chinese satellite reported for atmospheric/ocean/environmental/spatial parameter research purposes, details TBD.

CZ-6A DEB was lifted into orbit during the mission ‘Long March 6A | Yunhai 3’, on board a Long March 6A space rocket.

The launch took place on Nov. 11, 2022, 10:52 p.m. from Launch Complex 9A.

For more information about the launch, click the button.

Launch to space Long March 6A | Yunhai 3
Long March 6A | Yunhai 3

Agency: N/A

Status: Launch Successful

Launch date: Nov. 11, 2022, 10:52 p.m. UTC

Rocket: Long March 6A

Launch pad: Launch Complex 9A

Location: Taiyuan Satellite Launch Center, People's Republic of China

...

Latest news about this satellite

There are no fresh news available about this satellite. Check back as we update our databases every day.


Newsletter sign-up

Weekly statistics, charts and insights to help you stay on top of the space industry.